Regional Weather Roundup
Issued by NWS

Home | Current Version | Previous Version | Graphics & Text | Print | Product List | Glossary On
Versions: 1 2 3 4 5 6 7 8 9 10 11 12 13 14 15 16 17 18 19 20 21 22 23 24 25 26 27 28 29 30 31 32 33 34 35 36 37 38 39 40 41 42 43 44 45 46 47 48 49 50
000
ASUS45 KBOU 030907
RWRCO

WEATHER ROUNDUP FOR COLORADO
NATIONAL WEATHER SERVICE DENVER/BOULDER CO
200 AM MST TUE MAR 03 2015

NOTE: "FAIR" INDICATES FEW OR NO CLOUDS BELOW 12000 FEET WITH NO
SIGNIFICANT WEATHER AND/OR OBSTRUCTIONS TO VISIBILITY.

COZ001>005-013-030-031-031000-
...NORTHWEST COLORADO...

CITY           SKY/WX    TMP DP  RH WIND       PRES   REMARKS
CRAIG          MOCLDY    33  24  69 W16G25    29.70R WCI  23
HAYDEN         CLOUDY    32  21  64 SW21G31   29.68R WCI  20
MEEKER         CLOUDY    34  23  64 SW17      29.74R WCI  23
MOUNT WERNER   NOT AVBL
STEAMBOAT SPGS CLOUDY    32  21  63 SW15G25   29.68S WCI  22
WALDEN         CLOUDY    28  21  74 SW26G37   29.62S WCI  13
$$

COZ006>008-011-031000-
...WEST CENTRAL VALLEYS...

CITY           SKY/WX    TMP DP  RH WIND       PRES   REMARKS
GRAND JUNCTION PTCLDY    34  26  72 N7        29.79R WCI  28
MONTROSE       PTCLDY    35  23  61 S16       29.83F WCI  25
EAGLE          CLOUDY    32  27  80 W15       29.77R WCI  22
RIFLE          CLOUDY    35  28  75 W9        29.77R WCI  28
DELTA          CLOUDY    38  31  77 NE3       29.84S
NUCLA          PTCLDY    34  27  75 SW16G23   29.88F WCI  23
$$

COZ017>023-064>068-031000-
...SOUTHWEST COLORADO...

CITY           SKY/WX    TMP DP  RH WIND       PRES   REMARKS
DURANGO        MOCLDY    29  29 100 W10       29.90F WCI  20
CORTEZ         CLOUDY    34  27  75 S9        29.91F WCI  27
PAGOSA SPRINGS NOT AVBL
TELLURIDE      MOCLDY    25  11  55 SW15      29.86F WCI  13
WOLF CREEK PAS CLOUDY    10  10 100 SW25G56   29.80F WCI -10
$$

COZ009-010-012-014-032>034-037-058>063-031000-
...CENTRAL COLORADO...

CITY           SKY/WX    TMP DP  RH WIND       PRES   REMARKS
ASPEN          MOCLDY    24  20  84 N5        29.74S WCI  18
BUENA VISTA    CLOUDY    30  12  46 W15G23    29.72S WCI  19
COPPER MTN     HVY SNOW  18   9  68 SW33G48   29.67S VSB 1/4 WCI  -3
BERTHOUD PASS  NOT AVBL
COTTONWOOD PAS LGT SNOW  27  12  54 NW15G30   29.70R WCI  15
GUNNISON       MOCLDY    28  16  59 W20G28    29.81F WCI  15
KREMMLING      LGT SNOW  30  23  74 W23G33    29.70R WCI  17
LEADVILLE      CLOUDY    18  10  71 N13       29.70R WCI   5
SALIDA         CLOUDY    33  17  50 W24G38    29.82S WCI  21
SUNLIGHT         N/A     19  18  93 CALM        N/A
WILKERSON PASS PTCLDY    14  10  85 SW10G22   29.66R WCI   1
$$

COZ069>075-031000-
...SAN LUIS VALLEY/SANGRE DE CRISTO MOUNTAINS...

CITY           SKY/WX    TMP DP  RH WIND       PRES   REMARKS
ALAMOSA        PTCLDY    27  19  72 E12       29.79S WCI  17
LA VETA PASS   CLOUDY    21  19  93 MISG      29.71S
SAGUACHE       MOCLDY    28  18  64 NW9       29.76S WCI  20
$$

COZ035-036-038>040-031000-
...NORTHERN COLORADO FRONT RANGE...

CITY           SKY/WX    TMP DP  RH WIND       PRES   REMARKS
DENVER INTL AP PTCLDY    33  23  66 W13       29.59R WCI  24
DMNS CITY PARK   N/A     42  13  31 W17G29    29.60S
AURORA         PTCLDY    32  24  72 W6        29.61R WCI  26
FRONT RANGE AP NOT AVBL
ERIE MUNI ARPT PTCLDY    42  17  37 W16G25    29.60S
BOULDER MUN AP PTCLDY    43  18  36 W14G22    29.59S
CENTENNIAL     PTCLDY    38  14  37 SW16G26   29.61R
BROOMFIELD     PTCLDY    36  16  44 W5        29.60S
FORT COLLINS   CLEAR     30  25  80 SE7       29.58F WCI  23
LONGMONT       CLEAR     44  19  37 W21G29    29.61R
$$

COZ041-046-047-076>085-087-088-031000-
...PIKES PEAK/PALMER DIVIDE AND SOUTHERN FOOTHILLS...

CITY           SKY/WX    TMP DP  RH WIND       PRES   REMARKS
COLO. SPRINGS  PTCLDY    39  10  30 W16G28    29.67R
A. F. ACADEMY  PTCLDY    39   7  26 W18G35    29.66S
ELLICOTT       NOT AVBL
FALCON         PTCLDY    37   8  31 W21G28    29.68R
FORT CARSON    PTCLDY    41   9  27 SW12G25   29.66R
LIMON          MOCLDY    35  20  54 W13G21    29.60F WCI  26
MONUMENT HILL  PTCLDY    34  14  44 SW17      29.63S WCI  23
TRINIDAD       PTCLDY    41  25  53 W16       29.73R
$$

COZ042>045-048>051-090-091-031000-
...NORTHEAST COLORADO...

CITY           SKY/WX    TMP DP  RH WIND       PRES   REMARKS
GREELEY ARPT   CLEAR     27  19  74 NE6       29.57F WCI  20
AKRON          CLOUDY    26  26 100 SW13      29.55F FOG     WCI  15
BURLINGTON     CLOUDY    35  30  82 W9        29.58F WCI  28
WRAY           CLOUDY   N/A N/A N/A SW5       29.59R HAZE
STERLING       CLOUDY    32  30  93 W5        29.60R FOG     WCI  27
HOLYOKE        NOT AVBL
FORT MORGAN    FOG       27  26  96 NW13      29.60R VSB 1/2 WCI  16
$$

COZ086-089-092>099-031000-
...SOUTHEAST COLORADO...

CITY           SKY/WX    TMP DP  RH WIND       PRES   REMARKS
PUEBLO         PTCLDY    40  30  67 W22       29.62S
LA JUNTA       MOCLDY    44  29  55 SW22      29.66R
LAMAR          PTCLDY    41  33  73 SW18      29.63R
SPRINGFIELD      N/A     42  35  76 W15       29.68S
$$


USA.gov is the U.S. government's official web portal to all federal, state and local government web resources and services.